Location: Jaboat�o
(8.1170°S, 35.0170°W)
Time: 19:23:19
(UTC-03:00)

BlueWalker 3 - Pass Details

Date: 24 June 2024
Orbit: 480 x 491 km, 53.2° (Epoch: 21 July)

Event Time Altitude Azimuth Distance (km) Brightness Sun altitude
Exits shadow 04:12:26 - 326° (NW) 1,740 4.5 -19.3°
Reaches altitude 10° 04:12:39 10° 326° (NW) 1,654 4.4 -19.2°
Maximum altitude 04:16:23 89° 228° (SW) 489 1.7 -18.4°
Drops below altitude 10° 04:20:10 10° 146° (SE) 1,674 4.7 -17.5°
Sets 04:22:21 0° 146° (SE) 2,561 5.7 -17.0°
